Regional Weather Roundup
Issued by NWS Northern Indiana

Home | Current Version | Previous Version | Text Only | Print | Product List | Glossary Off
Versions: 1 2 3 4 5 6 7 8 9 10 11 12 13 14 15 16 17 18 19 20 21 22 23 24 25 26 27 28 29 30 31 32 33 34 35 36 37 38 39 40 41 42 43 44 45 46 47 48 49 50

000
ASUS43 KIWX 310800
RWRIWX

KIWX WEATHER ROUNDUP
NATIONAL WEATHER SERVICE NORTHERN INDIANA
300 AM EST SAT JAN 31 2015

NOTE: "FAIR" INDICATES FEW OR NO CLOUDS BELOW 12,000 FEET WITH NO
SIGNIFICANT WEATHER AND/OR OBSTRUCTIONS TO VISIBILITY.

* THESE STATIONS ARE NOT UNDER NWS QUALITY CONTROL. THEY ALSO MAY NOT
  REPORT WEATHER SUCH AS PRECIPITATION OR FOG.

INZ001>027-310900-
NORTHERN INDIANA

CITY           SKY/WX    TMP DP  RH WIND       PRES   REMARKS
SOUTH BEND     CLEAR     16  11  80 SW7       30.33F WCI   6
GOSHEN         CLEAR     18  12  77 S6        30.33F WCI  10
ANGOLA*        CLEAR     10   9  92 CALM      30.33S
FORT WAYNE     CLEAR     16  12  84 S7        30.36F WCI   6
PERU/GRISSOM   CLEAR     19  15  86 S7        30.35F WCI   9

$$
INZ028>050-310900-
CENTRAL INDIANA

CITY           SKY/WX    TMP DP  RH WIND       PRES   REMARKS
LAFAYETTE      CLEAR     18  15  88 CALM      30.37F
KOKOMO*        CLEAR     19  14  79 S7        30.37S WCI  10
MUNCIE*        CLEAR     20  15  81 S5        30.37F WCI  13
INDIANAPOLIS   CLEAR     19  15  84 S3        30.38F

$$
MIZ043>046-050>051-056>058-064>065-071>073-077>080-310900-
SOUTHWEST LOWER MICHIGAN

CITY           SKY/WX    TMP DP  RH WIND       PRES   REMARKS
BATTLE CREEK   CLEAR     15  10  80 S5        30.30F WCI   8
BENTON HARBOR  CLEAR     17  13  84 S6        30.32F WCI   9
COLDWATER*     CLEAR     10   7  89 S3        30.31F
HILLSDALE*     PTCLDY    13  10  90 CALM      30.30F
HOLLAND        PTCLDY    20  13  74 S3        30.30S
GRAND RAPIDS   CLOUDY    20  14  77 S6        30.30F WCI  12
KALAMAZOO      CLEAR     14  10  84 S6        30.31F WCI   5
STURGIS*       CLEAR     16  12  86 CALM      30.31F
THREE RIVERS*  FAIR      15  12  90 S3        30.32F

$$
OHZ001>008-015>018-024>025-310900-
NORTHWEST OHIO

CITY           SKY/WX    TMP DP  RH WIND       PRES   REMARKS
DEFIANCE       PTCLDY    16  11  80 S3        30.37F
FINDLAY        CLEAR     13   7  77 S6        30.36F WCI   4
TOLEDO EXPRESS CLEAR     11   8  88 CALM      30.36F
TOLEDO METCALF MOCLDY    17   9  70 SW6       30.37F WCI   9
LIMA           PTCLDY    15  10  80 S7        30.36S WCI   5

$$
AND FOR LAKE MICHIGAN COASTAL AND OPEN LAKE BUOY OBSERVATIONS

STATION/POSITION TEMP    WIND        PRES    VSBY  WAVE
                 AIR SEA DIR/SP/G                  HT/PER
                 (F)     (DEG/KT/KT) (MB)    (MI)  (FT/S)
CALUMET HARBOR    24     190/  5/  7   N/A
MICHIGAN CITY     22     180/  6/  7   N/A
SAINT JOSEPH      21     140/  7/ 11 1026.4F

$$
&&


USA.gov is the U.S. government's official web portal to all federal, state and local government web resources and services.